Wind_Speed
18 17 17 18 18 17 17 16 16 17 17 18 18 19 20 23 25 9 12 10 13 17 17 18 17 11 10 11 12 7 7 8 7 15 10 9 12 4 9 9 3 2 4 27 31
18 18 18 18 18 18 17 16 17 17 18 19 19 20 20 23 20 22 20 13 12 26 22 23 17 13 10 10 7 7 6 13 11 9 8 6 7 10 8 11 9 11 19 30 33
20 19 20 19 18 19 18 18 18 18 18 19 19 19 18 20 15 6 10 12 18 29 22 18 15 14 13 11 11 12 13 12 10 7 3 5 5 9 11 9 16 16 21 25 29
20 20 21 20 21 21 21 20 20 19 18 20 19 18 17 9 7 9 4 7 20 27 22 17 13 16 15 14 13 16 15 10 11 2 3 7 4 8 7 10 18 20 22 24 24
21 21 20 21 22 22 23 22 21 20 19 20 19 17 10 11 18 9 3 10 23 26 27 18 16 16 18 10 11 12 14 14 8 5 7 1 7 2 7 12 15 21 22 23 22
22 22 22 22 23 23 22 22 22 21 20 20 19 13 8 18 13 5 8 17 25 30 26 22 14 16 16 12 13 14 12 14 12 10 9 10 9 7 9 11 17 20 21 21 22
22 22 23 23 25 23 22 22 22 23 22 20 18 6 13 20 6 6 12 20 25 30 23 25 22 13 17 17 12 11 16 17 16 13 9 12 14 13 16 12 19 19 18 20 21
23 24 25 26 25 24 24 23 23 22 21 17 10 8 10 14 18 25 12 17 24 28 27 18 16 13 20 8 11 15 19 18 19 16 10 15 8 13 13 15 17 18 17 18 21
24 25 25 27 27 27 25 24 21 15 10 7 7 11 17 4 18 21 20 19 22 23 16 10 13 18 14 14 17 12 16 21 10 15 12 11 12 14 15 15 16 16 17 18 19
26 26 27 28 28 28 28 21 11 6 4 6 14 8 19 16 19 22 24 21 18 17 17 14 11 16 16 14 15 9 10 17 8 14 14 15 15 14 14 15 16 17 17 18 19
26 27 28 29 29 28 27 9 6 8 16 16 15 15 3 21 5 16 28 23 15 18 20 20 15 19 22 15 7 9 13 23 27 19 11 15 18 14 13 13 15 17 18 18 19
28 28 30 31 29 22 10 7 7 7 9 20 24 22 23 6 11 17 25 23 22 22 22 19 22 22 17 23 10 12 8 33 33 11 14 11 17 19 15 12 14 16 18 19 19
29 29 31 32 20 9 11 17 8 9 8 17 24 22 24 17 18 20 22 25 25 25 24 24 22 20 9 10 15 14 24 37 18 1 15 12 18 18 17 13 14 15 18 19 20
31 30 30 33 11 9 9 3 7 6 7 16 19 18 23 21 24 22 25 25 24 26 26 22 23 18 20 16 15 16 6 5 8 8 12 18 12 20 19 16 17 17 17 19 21
36 33 27 17 17 7 6 1 6 6 6 9 15 2 19 27 10 27 23 26 29 23 19 25 19 18 16 16 17 15 5 2 9 20 16 24 16 22 24 21 20 19 19 19 21
41 34 24 11 11 12 7 5 7 7 12 10 11 12 16 24 28 20 24 24 23 25 25 27 19 23 16 13 15 13 5 4 12 15 15 19 17 14 23 22 22 20 21 21 21
40 22 8 7 2 2 5 8 7 10 6 10 14 17 19 19 26 24 28 26 24 23 23 25 23 18 14 7 6 15 11 1 2 8 13 19 24 10 28 24 23 25 22 23 22
28 5 7 11 5 7 8 9 11 10 23 4 3 14 17 17 24 27 27 25 29 26 18 20 19 22 20 15 17 11 13 5 5 12 15 24 16 21 2 17 22 23 25 24 24
14 4 6 2 8 7 8 12 10 16 5 11 9 12 15 14 13 25 25 27 28 27 26 20 23 24 17 11 16 6 10 8 7 23 18 14 15 9 21 23 14 14 21 24 23
12 7 3 2 9 10 9 17 17 11 6 11 14 8 15 19 18 24 24 26 27 30 27 22 16 24 20 18 11 13 19 8 3 7 9 13 15 15 15 14 16 18 12 10 14
8 4 5 6 11 8 11 17 18 18 6 12 15 4 12 6 11 20 26 23 29 29 27 27 18 15 21 20 18 10 13 8 14 5 4 2 10 19 21 21 18 18 17 15 12
7 4 7 8 7 9 12 17 9 14 12 13 11 14 9 8 12 15 13 24 22 27 31 29 18 14 22 18 20 23 18 20 10 16 2 8 10 21 12 4 10 14 11 8 4
6 5 7 9 6 8 11 15 11 15 17 17 17 15 13 9 6 12 12 13 23 24 28 24 22 12 20 31 25 24 22 19 20 7 10 5 7 24 10 4 7 14 11 9 8
5 4 5 8 12 11 12 11 14 11 12 17 14 16 15 15 13 7 11 11 6 14 7 20 24 23 12 21 17 23 19 21 20 14 9 11 14 17 29 7 14 8 9 11 9
4 5 4 7 5 7 12 15 16 12 6 6 9 16 18 16 17 16 15 14 9 13 14 18 24 26 23 15 17 21 23 27 20 21 19 16 11 10 22 29 10 10 11 10 9
7 5 10 13 15 14 12 13 15 14 3 16 12 15 7 14 14 14 10 16 13 19 18 20 20 23 23 17 24 21 23 25 27 25 24 21 9 18 9 25 1 6 12 10 10
13 10 6 11 13 9 7 10 8 11 13 16 11 8 9 8 13 18 16 18 15 12 10 22 18 20 19 28 22 30 31 24 20 23 25 19 20 14 8 8 36 6 6 11 11
Wind_Direction
347 343 340 340 338 336 336 336 331 329 325 323 324 327 327 324 315 278 250 257 194 177 166 170 191 207 219 248 248 218 285 323 66 92 118 139 115 172 59 121 134 101 80 137 150
345 342 338 335 338 338 334 330 326 323 320 319 321 325 326 324 305 266 245 236 204 175 176 181 191 202 217 243 243 232 100 283 37 70 83 136 146 131 192 143 128 105 112 138 154
344 342 339 336 334 335 332 328 322 319 316 315 319 323 324 323 275 257 157 217 195 180 191 191 193 201 228 245 240 272 266 318 99 45 323 118 236 144 226 166 144 136 142 150 158
342 340 340 339 335 333 330 324 318 315 313 311 315 320 319 296 284 128 136 187 190 186 198 199 210 209 231 232 248 255 279 266 314 79 290 237 183 178 226 80 123 136 153 159 167
341 340 339 335 332 328 327 322 316 313 309 306 309 318 327 242 252 167 248 191 181 193 209 203 210 222 242 263 260 253 272 278 256 251 269 137 252 208 199 108 122 141 157 166 174
340 339 335 332 330 326 325 321 315 310 304 301 302 307 254 260 262 208 206 175 187 196 217 212 215 221 256 280 266 298 309 289 256 236 204 242 229 190 174 130 129 153 164 171 176
337 335 333 329 328 325 321 315 313 308 300 296 293 268 263 249 284 250 220 201 199 200 215 214 223 233 236 240 233 272 275 260 230 220 215 214 213 186 132 173 147 166 169 174 179
338 336 333 330 327 322 317 311 310 304 299 289 277 224 258 252 239 246 238 206 201 204 225 216 231 252 246 300 256 240 254 252 194 198 187 210 221 149 159 166 163 172 172 177 181
335 334 331 330 327 322 316 313 305 301 302 267 195 223 259 203 219 229 216 205 199 207 218 237 227 233 227 237 245 230 252 228 171 182 156 197 197 144 175 167 170 174 174 180 181
335 332 329 326 325 323 316 311 296 240 253 231 264 236 245 226 222 215 205 214 196 197 206 208 213 233 235 244 239 236 315 328 289 166 193 188 130 151 179 175 171 175 175 182 184
334 330 327 323 321 326 325 320 218 201 216 226 197 210 254 213 219 206 193 206 210 205 209 201 214 223 236 230 128 92 336 299 280 225 186 195 141 160 178 182 172 174 177 185 187
334 330 327 322 322 316 294 255 353 345 279 230 247 252 259 251 220 214 193 196 208 212 215 209 227 231 233 119 79 75 279 266 273 145 213 206 163 164 180 194 172 176 178 185 186
333 330 329 323 323 292 239 267 315 307 259 256 232 228 230 219 238 203 188 199 205 216 214 228 214 227 201 216 208 175 194 242 265 247 213 229 187 163 168 197 171 182 179 189 187
331 327 328 328 308 327 272 308 238 282 270 243 209 221 217 216 228 247 190 204 214 217 221 223 241 224 207 226 217 230 354 47 301 340 211 209 212 177 170 195 183 184 179 188 188
333 323 319 315 302 266 10 244 306 248 269 115 159 111 199 201 201 210 201 213 220 207 220 228 219 226 239 218 217 260 92 4 287 292 246 195 240 184 180 189 185 192 180 184 184
336 322 310 290 228 243 290 264 264 232 242 161 152 194 196 200 225 189 209 213 219 233 223 239 204 234 200 230 231 97 111 42 279 293 278 224 213 211 185 181 187 193 184 187 180
337 326 268 231 98 174 233 227 214 242 155 194 181 181 200 191 216 224 192 200 211 216 230 222 225 211 243 147 153 164 191 91 247 247 242 205 225 180 252 179 186 184 192 188 184
338 327 296 217 265 244 223 219 238 235 248 50 306 183 203 206 203 216 186 204 209 212 222 212 209 189 219 168 214 203 200 180 178 246 220 245 207 221 141 168 185 197 185 188 193
336 252 229 217 211 214 223 220 228 258 353 311 217 236 213 231 201 214 209 207 204 217 231 204 216 188 191 189 211 116 200 102 80 273 269 237 192 262 164 216 178 210 185 185 190
320 260 97 227 197 218 230 243 242 284 349 299 260 230 237 194 207 202 208 211 214 209 229 241 216 192 168 209 144 143 133 93 124 300 249 237 224 214 168 182 208 180 185 182 195
273 251 80 143 176 220 232 233 245 269 236 270 280 294 269 294 230 225 213 218 212 207 219 241 250 190 155 199 185 190 168 188 163 187 294 355 292 206 185 191 183 189 187 174 201
289 275 135 167 218 220 242 248 277 287 277 242 275 301 301 320 269 257 252 219 211 217 206 229 219 192 189 195 218 189 208 198 216 182 207 312 272 316 67 161 156 141 107 119 125
292 303 163 212 260 249 226 257 268 258 263 252 244 251 264 264 279 257 266 253 224 208 215 211 238 222 190 220 201 202 209 202 241 135 180 222 265 314 288 77 104 123 133 138 117
284 282 153 201 266 278 300 297 272 237 259 270 270 265 260 257 256 274 263 267 291 259 355 217 228 233 220 242 193 203 213 203 220 236 195 229 257 306 295 231 138 135 138 131 122
300 12 18 298 288 333 305 294 297 283 206 280 251 246 253 247 245 245 248 269 247 253 266 243 229 238 230 182 259 218 201 222 206 228 243 220 204 259 279 311 224 164 152 144 136
334 344 342 289 266 268 264 261 267 281 271 268 228 283 241 246 260 251 270 236 246 200 222 232 232 245 243 215 165 275 269 203 209 213 224 246 215 208 292 345 241 202 161 158 148
353 328 295 285 268 279 285 331 321 337 289 261 303 315 257 307 340 322 312 310 313 314 251 229 231 231 231 246 208 195 216 218 212 217 221 212 230 184 89 50 287 167 177 160 147
Height
791 789 787 784 782 779 777 775 773 770 767 764 762 759 756 752 748 745 738 731 733 735 739 741 742 741 740 733 729 731 741 732 707 728 710 698 706 702 702 718 717 721 719 734 750
791 788 786 783 781 778 776 774 771 768 766 763 760 758 755 750 744 735 729 729 731 733 737 736 737 737 737 730 724 737 763 743 692 696 702 700 700 708 714 721 728 729 731 741 751
791 788 785 782 779 777 774 771 769 766 763 761 758 756 753 749 738 719 723 726 729 730 732 733 733 733 739 724 722 720 731 705 696 695 695 699 706 698 708 722 717 734 738 744 750
790 787 783 781 778 775 772 769 766 763 761 758 756 754 752 750 746 721 724 724 727 731 730 730 729 735 737 733 716 727 706 700 693 695 701 704 691 704 703 702 701 722 734 742 748
789 785 782 779 776 773 770 767 763 761 759 756 754 753 751 739 724 720 722 723 728 731 724 724 728 730 735 718 712 720 711 698 692 695 700 697 703 702 705 700 705 722 733 739 745
788 784 780 777 774 770 767 763 760 758 756 754 752 752 752 743 717 718 720 723 723 726 721 717 718 716 719 719 719 702 705 702 694 694 698 706 703 702 700 701 711 724 731 736 740
787 783 779 775 770 767 763 759 756 754 752 750 750 751 744 724 716 715 716 717 719 720 714 712 711 710 708 717 703 710 722 701 696 692 696 693 707 708 695 702 714 723 728 734 738
785 781 777 772 768 763 759 756 752 750 747 746 746 750 732 712 712 714 712 710 713 715 709 708 709 709 708 702 712 721 713 717 685 686 686 694 723 696 696 703 715 719 725 732 735
783 779 774 770 765 760 755 751 748 745 744 743 746 742 722 706 708 707 707 705 707 708 708 708 709 711 706 725 727 712 733 714 696 677 685 697 719 700 694 700 713 717 723 729 733
781 777 772 767 762 757 751 747 744 743 743 745 741 738 709 701 697 699 702 702 701 703 707 711 713 718 712 718 743 731 749 746 739 691 686 697 705 699 695 697 708 713 720 726 730
779 774 769 764 759 755 750 744 740 736 734 714 704 704 686 692 693 693 695 699 699 702 718 709 723 726 711 701 720 755 770 775 752 692 687 689 700 701 696 695 704 709 717 723 727
777 771 766 760 755 751 751 740 723 731 722 703 702 695 690 691 695 688 691 701 706 714 706 709 721 699 694 729 751 759 784 777 716 674 683 688 694 690 693 694 696 702 712 717 721
773 768 763 756 750 747 743 734 733 731 721 694 684 687 688 690 692 684 685 690 701 709 704 710 696 689 702 707 727 746 782 764 719 685 678 687 695 692 688 687 688 693 700 706 713
770 764 759 752 752 743 736 733 734 733 724 686 677 673 677 682 692 673 676 684 690 703 697 697 681 690 698 711 704 728 716 713 710 734 714 685 721 692 688 694 690 691 695 699 705
766 761 757 755 750 741 736 735 735 733 734 657 667 662 663 679 672 676 667 678 692 690 691 698 690 695 703 701 698 710 702 712 714 709 690 691 701 682 676 696 691 685 687 689 695
759 754 751 749 748 739 738 737 734 737 721 672 663 674 676 673 674 661 672 670 670 682 680 678 666 676 684 686 687 699 714 734 720 719 734 692 691 687 676 679 679 676 677 681 687
752 746 743 744 732 737 738 734 734 725 662 670 670 664 671 676 678 664 680 686 691 708 700 683 681 671 671 703 713 705 725 768 785 759 734 675 689 681 683 648 658 666 669 672 676
747 743 741 740 738 739 736 732 730 679 673 652 658 657 671 657 669 666 672 686 675 679 684 695 708 680 671 696 717 712 720 763 795 772 717 668 688 670 641 631 638 643 650 658 667
743 739 736 737 738 737 729 728 707 679 665 663 661 674 668 656 659 666 669 675 668 666 687 683 689 658 669 677 690 736 745 768 798 791 755 683 659 641 634 642 638 644 643 651 657
744 732 729 734 737 736 727 718 688 667 674 673 687 661 668 657 665 663 666 654 661 656 649 660 684 655 668 676 687 718 720 779 801 800 750 711 680 675 656 653 644 646 646 648 649
742 722 731 732 735 728 721 703 686 671 676 686 675 669 663 663 654 659 659 650 644 649 649 650 667 667 670 686 693 709 732 733 764 783 779 750 749 643 646 641 645 642 640 646 653
732 714 728 732 728 710 707 692 690 683 672 681 675 673 673 667 671 660 650 643 628 635 657 646 658 677 702 666 665 683 693 710 724 761 775 767 725 666 655 635 636 635 648 654 659
731 714 724 726 716 696 687 688 686 689 685 680 680 673 666 675 682 662 648 625 621 630 641 643 659 687 704 692 661 675 683 686 695 712 757 782 747 680 657 633 643 654 656 663 664
734 715 709 715 705 708 700 697 692 675 681 676 675 670 674 678 667 673 658 639 631 629 641 631 646 654 709 682 658 675 675 675 691 705 720 733 733 739 716 655 649 657 658 662 666
730 721 726 713 700 703 706 701 698 687 676 674 680 678 678 683 675 671 660 650 640 633 636 635 656 646 637 655 667 658 667 671 688 686 701 693 721 712 711 682 647 649 661 666 669
751 748 736 726 713 711 707 702 698 688 687 686 682 671 664 675 670 667 655 648 646 635 641 630 655 645 651 643 694 702 667 654 664 674 677 679 709 698 695 678 646 652 657 665 672
768 758 751 727 707 704 697 697 699 699 695 683 682 687 685 676 673 667 660 649 647 651 644 642 645 655 667 651 650 699 657 650 649 647 655 677 669 668 688 709 702 649 650 665 674